Location: Ferintosh
(52.7647°N, 112.9692°W)
Time: 15:50:55
(UTC+00:00)

Transit 2A - Pass Details

Date: 27 May 2024
Orbit: 592 x 959 km, 66.7° (Epoch: 23 June)

Event Time Altitude Azimuth Distance (km) Brightness Sun altitude
Rises 06:58:03 0° 251° (WSW) 3,024 9.0 -15.5°
Reaches altitude 10° 07:00:26 10° 260° (W) 2,165 8.3 -15.6°
Maximum altitude 07:04:59 36° 327° (NNW) 1,192 7.6 -15.7°
Drops below altitude 10° 07:10:01 10° 33° (NNE) 2,400 9.3 -15.7°
Sets 07:12:48 0° 42° (NE) 3,400 10.0 -15.8°
